Weather History for Charlottetown, P. E. I., Prince Edward Island

Change the Weather History Date:

Tuesday, March 12, 2013

  Actual Average Record
Temperature  
Mean Temperature 36 °F -  
Max Temperature 42 °F 37 °F - ()
Min Temperature 30 °F 23 °F - ()
Degree Days  
Heating Degree Days 29    
Moisture  
Dew Point 34 °F    
Average Humidity 89    
Maximum Humidity 93    
Minimum Humidity 75    
Precipitation  
Precipitation 0.00 in 0.12 in - ()
Sea Level Pressure  
Sea Level Pressure 30.25 in    
Wind  
Wind Speed 14 mph ()    
Max Wind Speed 23 mph    
Max Gust Speed 24 mph    
Visibility 15.0 miles    
Events      
T = Trace of Precipitation, MM = Missing Value Source: Averaged Metar Reports

Daily Weather History Graph

Daily Weather History Graph

Search for Another Location

Airport:

Trip Planner

Search our weather history database for the weather conditions in past years. The results will help you decide how hot, cold, wet, or windy it might be!

Date:

Astronomy

Mar. 12, 2013 Rise Set
Actual Time 7:30 AM ADT 7:14 PM ADT
Civil Twilight 7:00 AM ADT 7:44 PM ADT
Nautical Twilight 6:25 AM ADT 8:19 PM ADT
Astronomical Twilight 5:50 AM ADT 8:54 PM ADT
Moon 7:29 AM ADT (3/12) 8:31 PM ADT (3/12)
Length of Visible Light 12h 43m
Length of Day
11h 43m
New Moon, 1% of the Moon is Illuminated
Mar 12
New Moon
Mar 19
First Quarter
Mar 27
Full
Apr 3
Last Quarter
Apr 10
New

Hourly Weather History & Observations

Time (ADT) Temp. Windchill Dew Point Humidity Pressure Visibility Wind Dir Wind Speed Gust Speed Precip Events Conditions
12:00 AM 32.0 °F 21.6 °F 30.2 °F 93% 30.23 in 15.0 mi South 15.0 mph - N/A   Partly Cloudy
1:00 AM 32.0 °F 22.5 °F 30.2 °F 93% 30.24 in 15.0 mi South 12.7 mph - N/A   Scattered Clouds
2:00 AM 32.0 °F 22.1 °F 30.2 °F 93% 30.25 in 15.0 mi South 13.8 mph - N/A   Mostly Cloudy
3:00 AM 31 °F - 29 °F 91% 30.24 in 15 mi South 16.1 mph - -   Mostly Cloudy
3:00 AM 30.2 °F 18.9 °F 28.4 °F 93% 30.23 in 15.0 mi South 16.1 mph - N/A   Mostly Cloudy
4:00 AM 30.2 °F 19.8 °F 28.4 °F 93% 30.23 in 15.0 mi South 13.8 mph - N/A   Mostly Cloudy
5:00 AM 32.0 °F 20.8 °F 28.4 °F 87% 30.25 in 15.0 mi South 17.3 mph - N/A   Overcast
7:00 AM 30.2 °F 19.3 °F 28.4 °F 93% 30.26 in 15.0 mi South 15.0 mph - N/A   Overcast
8:00 AM 32.0 °F 22.1 °F 30.2 °F 93% 30.28 in 15.0 mi South 13.8 mph - N/A   Overcast
9:00 AM 33 °F - 31 °F 92% 30.28 in 15 mi South 13.8 mph - -   Overcast
9:00 AM 33.8 °F 24.3 °F 32.0 °F 93% 30.28 in 15.0 mi South 13.8 mph 19.6 mph N/A   Overcast
10:00 AM 35.6 °F 26.2 °F 32.0 °F 87% 30.29 in 15.0 mi South 15.0 mph - N/A   Overcast
11:00 AM 35.6 °F 26.2 °F 33.8 °F 93% 30.28 in 15.0 mi South 15.0 mph - N/A   Overcast
12:00 PM 39.2 °F 30.8 °F 33.8 °F 81% 30.27 in 15.0 mi South 15.0 mph - N/A   Overcast
1:00 PM 39.2 °F 30.2 °F 35.6 °F 87% 30.26 in 15.0 mi South 17.3 mph - N/A   Overcast
2:00 PM 42.8 °F 34.8 °F 37.4 °F 81% 30.25 in 15.0 mi South 17.3 mph 24.2 mph N/A   Overcast
2:32 PM 42.8 °F 33.5 °F 37.4 °F 81% 30.26 in 15.0 mi SSW 23.0 mph - N/A   Overcast
3:00 PM 42 °F - 37 °F 75% 30.25 in 15 mi SSW 19.6 mph - -   Overcast
3:00 PM 42.8 °F 34.0 °F 37.4 °F 81% 30.25 in 15.0 mi SSW 20.7 mph - N/A   Overcast
4:00 PM 42.8 °F 34.8 °F 37.4 °F 81% 30.25 in 15.0 mi SSW 17.3 mph 23.0 mph N/A   Mostly Cloudy
4:44 PM 41.0 °F 32.2 °F 37.4 °F 87% 30.25 in 15.0 mi South 18.4 mph - N/A   Overcast
5:00 PM 41.0 °F 32.5 °F 37.4 °F 87% 30.25 in 15.0 mi South 17.3 mph 23.0 mph N/A   Overcast
5:38 PM 39.2 °F 29.0 °F 37.4 °F 93% 30.23 in 15.0 mi South 21.9 mph - N/A   Overcast
6:00 PM 39.2 °F 30.2 °F 35.6 °F 87% 30.24 in 15.0 mi South 17.3 mph - N/A   Overcast
7:00 PM 37.4 °F 27.8 °F 35.6 °F 93% 30.23 in 15.0 mi SSE 17.3 mph - N/A   Overcast
8:00 PM 37.4 °F 28.9 °F 35.6 °F 93% 30.23 in 15.0 mi SSE 13.8 mph 20.7 mph N/A   Overcast
9:00 PM 38 °F - 36 °F 88% 30.23 in 15 mi SSE 12.7 mph - -   Overcast
9:00 PM 37.4 °F 29.3 °F 35.6 °F 93% 30.23 in 15.0 mi SSE 12.7 mph - N/A   Overcast
10:00 PM 37.4 °F 28.9 °F 35.6 °F 93% 30.22 in 15.0 mi SSE 13.8 mph 19.6 mph N/A   Overcast
11:00 PM 37.4 °F 28.9 °F 35.6 °F 93% 30.20 in 15.0 mi SSE 13.8 mph 20.7 mph N/A   Overcast